Weather in Kinelskiy

Russia / Samara Oblast     53°15′21″N   50°39′11″E
temp.,
°C
wind,
m/s
gust,
m/s
humid.,
%
clouds,
%
prec.,
mm/h
press.,
hPa
HPBL,
m
1 march, mon
mon101:00−15nnw389386 0.1 1015223
04:00−19nw349657 0.1 101741
07:00−21nw33960 0.0 101931
10:00−18nw36910 0.0 1021244
13:00−15nw35891 0.0 1021341
16:00−13nw368932 0.0 1022474
19:00−18wnw239428 0.0 102220
22:00−19wsw229514 0.0 102220
2 march, tue
tue201:00−18sw339830 0.0 102042
04:00−14sw499665 0.0 1017248
07:00−12sw61293100 0.0 1013360
10:00−9sw71394100 0.4 1011514
13:00−3sw81395100 1.3 1007727
16:00−1sw81396100 2.3 1004692
19:00−1sw71397100 1.4 1002671
22:000w5998100 2.3 1002397
3 march, wed
wed301:00−2w479597 0.1 1001190
04:00−7wnw349473 0.1 100229
07:00−10wnw229438 0.0 100322
10:00−7w239420 0.0 1004112
13:00−3wnw349256 0.0 1004418
16:00−3nw469077 0.1 1004555
19:00−4nw5989100 0.1 1005422
22:00−10nw349266 0.1 100882
4 march, thu
thu401:00−11wnw349473 0.0 100851
04:00−13w349549 0.0 100954
07:00−14wsw47960 0.0 1009125
10:00−10wsw599544 0.0 1009313
13:00−6wsw61093100 0.0 1008524
16:00−2sw81291100 0.2 10071018
19:00−2sw91694100 0.3 1004846
22:000sw91691100 0.7 10031009
5 march, fri
fri501:000sw101689100 0.2 1000952
04:00−1sw101784100 0.3 999938
07:00−1wsw91692100 0.1 1001883
10:000wnw7109199 0.4 1005750
13:00−2wnw477999 0.0 1008648
16:00−3nw258581 0.0 1010188
19:00−9nnw228539 0.0 101221
22:00−11n128660 0.0 101421